RRR9987 BIKF-BIKF

Flight info

Callsign RRR9987
Flight time N/A
Altitude 3000
Route DCT
Aircraft A400/M-V/N

Departure

Time 2026-04-28 20:43
Airport Keflavik International Airport (BIKF)

Arrival

Time N/A
Airport Keflavik International Airport (BIKF)
Time Latitude Longitude Altitude Speed Heading
2026-04-28 20:29 63.98192 -22.58706 150 ft 0 kts
2026-04-28 20:36 63.98193 -22.58707 150 ft 1 kts 357°
2026-04-28 20:37 63.98196 -22.58728 150 ft 2 kts 285°
2026-04-28 20:37 63.98191 -22.58786 150 ft 7 kts 258°
2026-04-28 20:37 63.98187 -22.58918 150 ft 9 kts 279°
2026-04-28 20:37 63.98225 -22.59044 150 ft 11 kts 328°
2026-04-28 20:38 63.98326 -22.59144 149 ft 20 kts 337°
2026-04-28 20:38 63.98464 -22.59276 147 ft 23 kts 341°
2026-04-28 20:38 63.98622 -22.59300 150 ft 23 kts 358°
2026-04-28 20:38 63.98779 -22.59326 153 ft 22 kts 343°
2026-04-28 20:39 63.98912 -22.59457 159 ft 20 kts 321°
2026-04-28 20:39 63.99004 -22.59661 164 ft 17 kts 315°
2026-04-28 20:39 63.99084 -22.59846 169 ft 16 kts 314°
2026-04-28 20:39 63.99157 -22.60023 172 ft 15 kts 304°
2026-04-28 20:40 63.99172 -22.60239 174 ft 13 kts 270°
2026-04-28 20:40 63.99172 -22.60309 175 ft 0 kts 269°
2026-04-28 20:41 63.99172 -22.60328 175 ft 5 kts 270°
2026-04-28 20:41 63.99171 -22.60458 176 ft 9 kts 266°
2026-04-28 20:41 63.99132 -22.60548 176 ft 9 kts 193°
2026-04-28 20:41 63.99085 -22.60547 174 ft 0 kts 179°
2026-04-28 20:42 63.99082 -22.60547 174 ft 3 kts 179°
2026-04-28 20:42 63.98747 -22.60548 164 ft 100 kts 179°
2026-04-28 20:42 63.97767 -22.60514 330 ft 166 kts 181°
2026-04-28 20:43 63.96540 -22.60519 713 ft 187 kts 182°
2026-04-28 20:43 63.95141 -22.60569 930 ft 205 kts 183°
2026-04-28 20:43 63.93609 -22.60677 1203 ft 234 kts 183°
2026-04-28 20:43 63.91996 -22.60824 1076 ft 228 kts 185°
2026-04-28 20:44 63.90653 -22.62064 1159 ft 204 kts 227°
2026-04-28 20:44 63.90288 -22.65027 1195 ft 205 kts 276°
2026-04-28 20:44 63.91131 -22.67646 1160 ft 220 kts 328°
2026-04-28 20:44 63.92644 -22.68283 950 ft 224 kts 355°
2026-04-28 20:45 63.94216 -22.68412 872 ft 228 kts 356°
2026-04-28 20:45 63.95797 -22.68523 829 ft 228 kts 356°
2026-04-28 20:45 63.97371 -22.68596 849 ft 226 kts 356°
2026-04-28 20:45 63.98955 -22.68653 911 ft 228 kts 357°
2026-04-28 20:46 64.00551 -22.68700 958 ft 229 kts 357°
2026-04-28 20:46 64.02138 -22.68766 996 ft 229 kts 357°
2026-04-28 20:46 64.03730 -22.68843 1020 ft 230 kts 356°
2026-04-28 20:46 64.05335 -22.68922 1042 ft 230 kts 356°
2026-04-28 20:47 64.06926 -22.68620 1063 ft 230 kts 24°
2026-04-28 20:47 64.08037 -22.66211 879 ft 219 kts 72°
2026-04-28 20:47 64.08029 -22.63060 688 ft 189 kts 123°
2026-04-28 20:47 64.07148 -22.61081 671 ft 175 kts 158°
2026-04-28 20:48 64.06011 -22.60356 698 ft 165 kts 179°
2026-04-28 20:48 64.04897 -22.60584 667 ft 159 kts 187°
2026-04-28 20:48 64.03840 -22.60799 543 ft 139 kts 185°
2026-04-28 20:48 64.02930 -22.60782 423 ft 126 kts 180°
2026-04-28 20:49 64.02063 -22.60666 356 ft 124 kts 174°
2026-04-28 20:49 64.01207 -22.60514 412 ft 119 kts 183°
2026-04-28 20:49 64.00378 -22.60529 438 ft 118 kts 180°
2026-04-28 20:49 63.99573 -22.60548 276 ft 118 kts 184°
2026-04-28 20:50 63.98721 -22.60534 303 ft 137 kts 182°
2026-04-28 20:50 63.97640 -22.60557 622 ft 173 kts 183°
2026-04-28 20:50 63.96282 -22.60658 704 ft 222 kts 184°
2026-04-28 20:50 63.94662 -22.60818 1280 ft 235 kts 184°
2026-04-28 20:51 63.93057 -22.61363 1426 ft 228 kts 206°
2026-04-28 20:51 63.92082 -22.63898 1459 ft 213 kts 249°
2026-04-28 20:51 63.92215 -22.67171 1170 ft 217 kts 294°
2026-04-28 20:51 63.93404 -22.69284 997 ft 228 kts 343°
2026-04-28 20:52 63.94980 -22.69130 983 ft 229 kts
2026-04-28 20:52 63.96546 -22.68635 980 ft 225 kts
2026-04-28 20:52 63.98106 -22.68141 1053 ft 227 kts
2026-04-28 20:52 63.99730 -22.67633 1470 ft 249 kts
2026-04-28 20:53 64.02811 -22.64439 2523 ft 249 kts 66°
2026-04-28 20:53 64.03258 -22.60931 2463 ft 225 kts 84°
2026-04-28 20:53 64.03556 -22.57474 2323 ft 218 kts 88°
2026-04-28 20:54 64.03647 -22.54071 2122 ft 211 kts 99°
2026-04-28 20:54 64.03502 -22.50764 1944 ft 209 kts 104°
2026-04-28 20:54 64.03270 -22.47521 1734 ft 207 kts 107°
2026-04-28 20:54 64.02970 -22.44323 1574 ft 205 kts 109°
2026-04-28 20:55 64.02625 -22.41081 1566 ft 221 kts 107°
2026-04-28 20:55 64.02456 -22.37393 1569 ft 248 kts 96°
2026-04-28 20:55 64.02557 -22.33337 1611 ft 261 kts 88°
2026-04-28 20:55 64.02883 -22.29223 1677 ft 266 kts 81°
2026-04-28 20:56 64.03364 -22.25141 1706 ft 266 kts 81°
2026-04-28 20:56 64.03768 -22.21027 1709 ft 264 kts 82°
2026-04-28 20:56 64.04151 -22.16931 1726 ft 261 kts 82°
2026-04-28 20:56 64.04573 -22.12979 1720 ft 255 kts 76°
2026-04-28 20:57 64.05294 -22.09303 1634 ft 255 kts 69°
2026-04-28 20:57 64.05886 -22.05510 1632 ft 253 kts 77°
2026-04-28 20:57 64.06525 -22.01778 1706 ft 258 kts 53°
2026-04-28 20:57 64.07958 -21.99294 1790 ft 263 kts 32°
2026-04-28 20:58 64.09618 -21.97635 1607 ft 261 kts
2026-04-28 20:58 64.11425 -21.97742 1407 ft 255 kts 352°
2026-04-28 20:58 64.13037 -21.98842 1288 ft 235 kts 332°
2026-04-28 20:58 64.14446 -22.00439 1251 ft 220 kts 329°
2026-04-28 20:59 64.15884 -22.01270 1141 ft 216 kts
2026-04-28 20:59 64.17095 -21.99506 868 ft 207 kts 64°
2026-04-28 20:59 64.17221 -21.96443 785 ft 192 kts 119°
2026-04-28 20:59 64.16289 -21.94527 716 ft 183 kts 163°
2026-04-28 21:00 64.15031 -21.94087 378 ft 184 kts 177°
2026-04-28 21:00 64.13749 -21.93910 255 ft 186 kts 176°
2026-04-28 21:00 64.12458 -21.93684 323 ft 187 kts 176°
2026-04-28 21:00 64.11189 -21.93999 565 ft 185 kts 205°
2026-04-28 21:01 64.10096 -21.95882 898 ft 210 kts 221°
2026-04-28 21:01 64.09016 -21.98411 1303 ft 230 kts 224°
2026-04-28 21:01 64.07928 -22.01145 1533 ft 238 kts 225°
2026-04-28 21:01 64.06837 -22.04012 1637 ft 239 kts 229°
2026-04-28 21:02 64.05971 -22.07184 1554 ft 216 kts 276°
2026-04-28 21:02 64.05412 -22.10192 1220 ft 215 kts 206°
2026-04-28 21:02 64.04104 -22.09373 1512 ft 228 kts 126°
2026-04-28 21:02 64.04072 -22.05763 1488 ft 242 kts 61°
2026-04-28 21:03 64.05327 -22.03541 1510 ft 218 kts 29°
2026-04-28 21:03 64.06576 -22.01893 1264 ft 201 kts 23°
2026-04-28 21:03 64.07756 -22.02348 1388 ft 165 kts 308°
2026-04-28 21:03 64.08292 -22.04570 1373 ft 170 kts 317°
2026-04-28 21:04 64.09335 -22.04439 1187 ft 165 kts 50°
2026-04-28 21:04 64.09650 -22.02117 1020 ft 157 kts 98°
2026-04-28 21:04 64.09973 -21.99622 892 ft 165 kts 66°
2026-04-28 21:04 64.09801 -21.97758 1382 ft 133 kts 161°
2026-04-28 21:05 64.08866 -21.96282 622 ft 225 kts 101°
2026-04-28 21:05 64.10059 -21.94012 125 ft 278 kts
2026-04-28 21:05 64.12057 -21.93673 135 ft 297 kts
2026-04-28 21:05 64.14120 -21.93802 233 ft 279 kts
2026-04-28 21:06 64.15227 -21.91116 640 ft 246 kts 104°
2026-04-28 21:06 64.13945 -21.89555 654 ft 257 kts 221°
2026-04-28 21:06 64.13455 -21.93579 577 ft 269 kts 248°
2026-04-28 21:06 64.12120 -21.95732 1316 ft 206 kts 192°
2026-04-28 21:07 64.10969 -21.96440 3856 ft 145 kts 196°
2026-04-28 21:07 64.10083 -21.97017 5556 ft 126 kts 197°
2026-04-28 21:07 64.09197 -21.96942 6676 ft 152 kts 153°
2026-04-28 21:07 64.08677 -21.94460 7447 ft 209 kts 96°
2026-04-28 21:08 64.08888 -21.91080 8612 ft 215 kts 89°
2026-04-28 21:08 64.09111 -21.87667 9879 ft 217 kts 90°
2026-04-28 21:08 64.09304 -21.84266 11119 ft 198 kts 56°
2026-04-28 21:08 64.09761 -21.81651 9506 ft 178 kts 81°
2026-04-28 21:09 64.10207 -21.78756 6116 ft 206 kts 60°
2026-04-28 21:09 64.11195 -21.76299 2891 ft 221 kts 26°
2026-04-28 21:09 64.12767 -21.74851 1302 ft 278 kts
2026-04-28 21:09 64.14617 -21.75964 1015 ft 276 kts 316°
2026-04-28 21:10 64.15512 -21.79843 807 ft 291 kts 270°
2026-04-28 21:10 64.15026 -21.84057 785 ft 258 kts 261°
2026-04-28 21:10 64.15094 -21.87902 796 ft 224 kts 269°
2026-04-28 21:10 64.15274 -21.91206 774 ft 194 kts 275°
2026-04-28 21:11 64.15057 -21.93706 627 ft 147 kts 208°
2026-04-28 21:11 64.14117 -21.93979 197 ft 132 kts 177°
2026-04-28 21:11 64.13263 -21.93826 51 ft 107 kts 174°
2026-04-28 21:11 64.12725 -21.93725 58 ft 48 kts 175°
2026-04-28 21:12 64.12573 -21.93698 55 ft 15 kts 169°